{"data":{"norad_id":52850,"epoch":"2026-05-25T01:25:55.386912Z","epoch_age_seconds":83982,"freshness":"FRESH","line1":"1 52850U 22062W   26145.05966883  .00000187  00000+0  29815-4 0  9999","line2":"2 52850  53.2138  51.6377 0001512  70.5531 289.5624 15.08840564217314","mean_motion":15.08840564,"eccentricity":0.0001512,"inclination_deg":53.2138,"raan_deg":51.6377,"arg_perigee_deg":70.5531,"mean_anomaly_deg":289.5624,"bstar":2.9815e-5,"rev_number":21731,"period_min":95.437519003499,"perigee_km":538.69568178812,"apogee_km":540.78764829643,"semimajor_km":6917.8786650423,"source":"CELESTRAK","updated_at":"2026-05-25T13:38:17.244810Z"}}